H1 CPF 2 NER 2021 12 10 9 344 01 glonass134 H2 1407501 9134 40315 2021 12 10 0 0 0 2021 12 13 23 45 0 900 1 1 0 0 0 1 H9 10 0 59558 0.00000 0 -12755304.013 -7880736.092 20671842.931 10 0 59558 900.00000 0 -10198234.310 -8431951.685 21836129.291 10 0 59558 1800.00000 0 -7573780.387 -9196496.448 22577567.476 10 0 59558 2700.00000 0 -4949033.660 -10167191.839 22881576.949 10 0 59558 3600.00000 0 -2389413.835 -11325009.195 22742016.005 10 0 59558 4500.00000 0 43824.914 -12639733.271 22161318.885 10 0 59558 5400.00000 0 2295910.971 -14071112.344 21150469.987 10 0 59558 6300.00000 0 4320599.918 -15570449.390 19728813.961 10 0 59558 7200.00000 0 6081861.746 -17082570.067 17923703.487 10 0 59558 8100.00000 0 7555140.082 -18548087.013 15769989.520 10 0 59558 9000.00000 0 8728130.185 -19905866.807 13309361.972 10 0 59558 9900.00000 0 9601042.298 -21095596.491 10589552.083 10 0 59558 10800.00000 0 10186338.568 -22060341.496 7663410.735 10 0 59558 11700.00000 0 10507954.058 -22748986.245 4587880.092 10 0 59558 12600.00000 0 10600034.494 -23118452.904 1422878.644 10 0 59558 13500.00000 0 10505244.456 -23135602.593 -1769877.906 10 0 59558 14400.00000 0 10272718.495 -22778736.567 -4928095.717 10 0 59558 15300.00000 0 9955743.417 -22038631.799 -7990136.242 10 0 59558 16200.00000 0 9609271.891 -20919065.435 -10896238.019 10 0 59558 17100.00000 0 9287375.021 -19436804.636 -13589700.962 10 0 59558 18000.00000 0 9040744.121 -17621061.572 -16018008.048 10 0 59558 18900.00000 0 8914349.729 -15512436.457 -18133861.006 10 0 59558 19800.00000 0 8945358.737 -13161393.510 -19896108.703 10 0 59558 20700.00000 0 9161399.062 -10626334.825 -21270549.545 10 0 59558 21600.00000 0 9579245.846 -7971353.916 -22230592.310 10 0 59558 22500.00000 0 10203984.719 -5263763.985 -22757763.126 10 0 59558 23400.00000 0 11028686.915 -2571505.075 -22842049.714 10 0 59558 24300.00000 0 12034608.984 39461.423 -22482077.585 10 0 59558 25200.00000 0 13191907.538 2507662.560 -21685116.286 10 0 59558 26100.00000 0 14460837.656 4778424.201 -20466917.198 10 0 59558 27000.00000 0 15793383.427 6805887.415 -18851387.551 10 0 59558 27900.00000 0 17135251.186 8554649.064 -16870108.360 10 0 59558 28800.00000 0 18428141.145 10000960.832 -14561706.775 10 0 59558 29700.00000 0 19612201.868 11133439.647 -11971095.892 10 0 59558 30600.00000 0 20628564.795 11953262.891 -9148597.274 10 0 59558 31500.00000 0 21421853.049 12473843.081 -6148963.521 10 0 59558 32400.00000 0 21942560.160 12719998.303 -3030319.790 10 0 59558 33300.00000 0 22149199.974 12726655.288 146955.587 10 0 59558 34200.00000 0 22010138.718 12537141.066 3321390.151 10 0 59558 35100.00000 0 21505033.429 12201135.914 6431594.438 10 0 59558 36000.00000 0 20625817.251 11772373.893 9417435.364 10 0 59558 36900.00000 0 19377190.725 11306187.442 12221184.249 10 0 59558 37800.00000 0 17776598.473 10856998.607 14788618.546 10 0 59558 38700.00000 0 15853691.556 10475861.499 17070057.277 10 0 59558 39600.00000 0 13649296.838 10208158.371 19021311.324 10 0 59558 40500.00000 0 11213934.600 10091545.314 20604531.376 10 0 59558 41400.00000 0 8605944.014 10154233.417 21788938.015 10 0 59558 42300.00000 0 5889292.132 10413677.606 22551420.338 10 0 59558 43200.00000 0 3131154.980 10875728.792 22876991.715 10 0 59558 44100.00000 0 399368.810 11534286.134 22759093.542 10 0 59558 45000.00000 0 -2240144.629 12371465.761 22199740.272 10 0 59558 45900.00000 0 -4725873.555 13358281.051 21209501.657 10 0 59558 46800.00000 0 -7003029.781 14455808.359 19807320.886 10 0 59558 47700.00000 0 -9025584.685 15616791.572 18020170.210 10 0 59558 48600.00000 0 -10757942.715 16787620.234 15882548.760 10 0 59558 49500.00000 0 -12176182.104 17910599.659 13435830.304 10 0 59558 50400.00000 0 -13268810.074 18926418.383 10727472.055 10 0 59558 51300.00000 0 -14037000.007 19776709.134 7810098.656 10 0 59558 52200.00000 0 -14494299.876 20406594.635 4740478.526 10 0 59558 53100.00000 0 -14665823.696 20767109.336 1578412.586 10 0 59558 54000.00000 0 -14586960.143 20817392.838 -1614442.362 10 0 59558 54900.00000 0 -14301653.472 20526559.977 -4775791.404 10 0 59558 55800.00000 0 -13860330.572 19875166.189 -7843934.918 10 0 59558 56700.00000 0 -13317563.618 18856204.027 -10758991.589 10 0 59558 57600.00000 0 -12729569.333 17475586.955 -13464085.144 10 0 59558 58500.00000 0 -12151653.004 15752098.826 -15906469.657 10 0 59558 59400.00000 0 -11635707.632 13716810.540 -18038569.935 10 0 59558 60300.00000 0 -11227875.913 11411988.403 -19818915.582 10 0 59558 61200.00000 0 -10966475.343 8889540.597 -21212949.905 10 0 59558 62100.00000 0 -10880274.881 6209067.671 -22193697.922 10 0 59558 63000.00000 0 -10987196.077 3435599.550 -22742281.051 10 0 59558 63900.00000 0 -11293492.938 637114.559 -22848269.392 10 0 59558 64800.00000 0 -11793444.071 -2118055.593 -22509866.141 10 0 59558 65700.00000 0 -12469568.654 -4763826.667 -21733922.080 10 0 59558 66600.00000 0 -13293355.569 -7238860.751 -20535781.455 10 0 59558 67500.00000 0 -14226473.397 -9488860.341 -18938963.801 10 0 59558 68400.00000 0 -15222409.014 -11468563.944 -16974689.251 10 0 59558 69300.00000 0 -16228464.771 -13143362.323 -14681257.705 10 0 59558 70200.00000 0 -17188029.613 -14490470.787 -12103294.783 10 0 59558 71100.00000 0 -18043028.442 -15499611.474 -9290879.700 10 0 59558 72000.00000 0 -18736446.959 -16173179.987 -6298572.328 10 0 59558 72900.00000 0 -19214826.424 -16525892.122 -3184358.228 10 0 59558 73800.00000 0 -19430624.350 -16583927.809 -8531.794 10 0 59558 74700.00000 0 -19344342.923 -16383609.892 3167461.335 10 0 59558 75600.00000 0 -18926336.745 -15969674.443 6282200.976 10 0 59558 76500.00000 0 -18158224.784 -15393205.773 9275466.447 10 0 59558 77400.00000 0 -17033847.835 -14709322.860 12089386.275 10 0 59558 78300.00000 0 -15559731.385 -13974713.866 14669542.607 10 0 59558 79200.00000 0 -13755033.965 -13245121.427 16966010.291 10 0 59558 80100.00000 0 -11650982.106 -12572883.267 18934311.700 10 0 59558 81000.00000 0 -9289813.799 -12004630.315 20536270.023 10 0 59558 81900.00000 0 -6723272.330 -11579238.070 21740745.447 10 0 59558 82800.00000 0 -4010710.748 -11326116.682 22524240.497 10 0 59558 83700.00000 0 -1216883.098 -11263911.473 22871363.051 10 0 59558 84600.00000 0 1590488.519 -11399668.956 22775137.748 10 0 59558 85500.00000 0 4343272.314 -11728504.501 22237158.962 10 0 59559 0.00000 0 6975506.259 -12233787.142 21267581.223 10 0 59559 900.00000 0 9425894.276 -12887836.058 19884945.031 10 0 59559 1800.00000 0 11640112.682 -13653100.840 18115840.911 10 0 59559 2700.00000 0 13572835.814 -14483778.850 15994414.481 10 0 59559 3600.00000 0 15189392.457 -15327802.596 13561721.379 10 0 59559 4500.00000 0 16466984.501 -16129114.760 10864942.515 10 0 59559 5400.00000 0 17395415.585 -16830135.254 7956473.735 10 0 59559 6300.00000 0 17977298.179 -17374315.785 4892906.933 10 0 59559 7200.00000 0 18227729.556 -17708672.812 1733922.480 10 0 59559 8100.00000 0 18173449.955 -17786190.016 -1458884.777 10 0 59559 9000.00000 0 17851518.613 -17567986.386 -4623221.917 10 0 59559 9900.00000 0 17307564.317 -17025155.751 -7697331.214 10 0 59559 10800.00000 0 16593685.808 -16140197.529 -10621214.296 10 0 59559 11700.00000 0 15766092.622 -14907976.041 -13337821.260 10 0 59559 12600.00000 0 14882588.248 -13336166.246 -15794179.562 10 0 59559 13500.00000 0 14000004.200 -11445165.971 -17942439.070 10 0 59559 14400.00000 0 13171695.414 -9267477.819 -19740811.765 10 0 59559 15300.00000 0 12445204.327 -6846586.865 -21154387.125 10 0 59559 16200.00000 0 11860193.226 -4235381.684 -22155807.302 10 0 59559 17100.00000 0 11446732.323 -1494185.549 -22725789.492 10 0 59559 18000.00000 0 11224015.353 1311519.034 -22853486.265 10 0 59559 18900.00000 0 11199555.688 4113576.890 -22536678.215 10 0 59559 19800.00000 0 11368895.298 6843753.962 -21781796.708 10 0 59559 20700.00000 0 11715836.904 9436330.387 -20603777.891 10 0 59559 21600.00000 0 12213187.603 11830585.775 -19025752.343 10 0 59559 22500.00000 0 12823980.753 13973074.624 -17078577.790 10 0 59559 23400.00000 0 13503123.100 15819598.934 -14800225.098 10 0 59559 24300.00000 0 14199396.600 17336798.267 -12235030.375 10 0 59559 25200.00000 0 14857729.916 18503293.530 -9432828.218 10 0 59559 26100.00000 0 15421643.734 19310339.444 -6447983.262 10 0 59559 27000.00000 0 15835767.162 19761961.092 -3338338.787 10 0 59559 27900.00000 0 16048319.846 19874571.228 -164102.421 10 0 59559 28800.00000 0 16013456.177 19676086.281 3013309.895 10 0 59559 29700.00000 0 15693373.893 19204579.551 6132450.126 10 0 59559 30600.00000 0 15060099.227 18506528.878 9133012.758 10 0 59559 31500.00000 0 14096874.228 17634732.484 11956986.120 10 0 59559 32400.00000 0 12799088.208 16645980.097 14549759.442 10 0 59559 33300.00000 0 11174713.909 15598576.224 16861165.536 10 0 59559 34200.00000 0 9244229.273 14549818.360 18846440.135 10 0 59559 35100.00000 0 7040026.513 13553534.636 20467080.518 10 0 59559 36000.00000 0 4605331.064 12657782.925 21691587.755 10 0 59559 36900.00000 0 1992673.000 11902806.901 22496078.737 10 0 59559 37800.00000 0 -738028.288 11319334.166 22864756.413 10 0 59559 38700.00000 0 -3521689.399 10927287.676 22790228.815 10 0 59559 39600.00000 0 -6290508.399 10734965.017 22273669.926 10 0 59559 40500.00000 0 -8976531.276 10738720.955 21324818.053 10 0 59559 41400.00000 0 -11514234.606 10923168.028 19961810.071 10 0 59559 42300.00000 0 -13843018.158 11261888.479 18210852.879 10 0 59559 43200.00000 0 -15909504.254 11718629.360 16105736.397 10 0 59559 44100.00000 0 -17669547.879 12248932.067 13687195.594 10 0 59559 45000.00000 0 -19089872.854 12802128.831 11002132.300 10 0 59559 45900.00000 0 -20149264.600 13323622.468 8102710.638 10 0 59559 46800.00000 0 -20839268.253 13757352.976 5045342.995 10 0 59559 47700.00000 0 -21164361.672 14048345.767 1889586.261 10 0 59559 48600.00000 0 -21141595.239 14145232.163 -1303029.538 10 0 59559 49500.00000 0 -20799713.350 14002633.287 -4470216.216 10 0 59559 50400.00000 0 -20177794.872 13583303.988 -7550160.551 10 0 59559 51300.00000 0 -19323470.934 12859943.478 -10482749.553 10 0 59559 52200.00000 0 -18290796.785 11816593.657 -13210761.951 10 0 59559 53100.00000 0 -17137869.472 10449564.031 -15681000.596 10 0 59559 54000.00000 0 -15924294.044 8767842.623 -17845342.142 10 0 59559 54900.00000 0 -14708607.214 6792974.643 -19661682.348 10 0 59559 55800.00000 0 -13545768.863 4558413.677 -21094757.908 10 0 59559 56700.00000 0 -12484828.286 2108372.825 -22116828.777 10 0 59559 57600.00000 0 -11566863.993 -503775.618 -22708208.221 10 0 59559 58500.00000 0 -10823283.526 -3217484.201 -22857631.199 10 0 59559 59400.00000 0 -10274553.886 -5967314.573 -22562455.251 10 0 59559 60300.00000 0 -9929414.337 -8685426.276 -21828691.534 10 0 59559 61200.00000 0 -9784602.688 -11304166.170 -20670866.958 10 0 59559 62100.00000 0 -9825104.247 -13758651.114 -19111721.712 10 0 59559 63000.00000 0 -10024910.639 -15989237.338 -17181749.397 10 0 59559 63900.00000 0 -10348254.445 -17943775.050 -14918589.919 10 0 59559 64800.00000 0 -10751265.873 -19579556.340 -12366287.783 10 0 59559 65700.00000 0 -11183980.377 -20864877.443 -9574430.777 10 0 59559 66600.00000 0 -11592611.884 -21780152.578 -6597186.055 10 0 59559 67500.00000 0 -11921995.576 -22318535.363 -3492252.348 10 0 59559 68400.00000 0 -12118097.486 -22486024.133 -319748.254 10 0 59559 69300.00000 0 -12130485.777 -22301048.725 2858942.263 10 0 59559 70200.00000 0 -11914660.363 -21793557.586 5982345.600 10 0 59559 71100.00000 0 -11434143.622 -21003644.410 8990073.712 10 0 59559 72000.00000 0 -10662244.964 -19979772.245 11823977.035 10 0 59559 72900.00000 0 -9583425.455 -18776669.291 14429254.147 10 0 59559 73800.00000 0 -8194205.118 -17452983.832 16755498.004 10 0 59559 74700.00000 0 -6503574.260 -16068795.449 18757659.711 10 0 59559 75600.00000 0 -4532890.306 -14683085.350 20396912.423 10 0 59559 76500.00000 0 -2315262.547 -13351270.293 21641399.572 10 0 59559 77400.00000 0 105551.890 -12122902.019 22466853.558 10 0 59559 78300.00000 0 2676697.662 -11039627.423 22857073.160 10 0 59559 79200.00000 0 5338154.926 -10133494.224 22804250.172 10 0 59559 80100.00000 0 8024979.590 -9425672.999 22309138.176 10 0 59559 81000.00000 0 10669759.675 -8925649.507 21381058.969 10 0 59559 81900.00000 0 13205187.878 -8630922.090 20037744.894 10 0 59559 82800.00000 0 15566644.808 -8527218.117 18305018.210 10 0 59559 83700.00000 0 17694686.222 -8589221.820 16216311.726 10 0 59559 84600.00000 0 19537330.689 -8781784.285 13812037.998 10 0 59559 85500.00000 0 21052051.521 -9061565.813 11138817.680 10 0 59560 0.00000 0 22207388.556 -9379041.957 8248581.019 10 0 59560 900.00000 0 22984111.410 -9680788.756 5197557.631 10 0 59560 1800.00000 0 23375882.466 -9911949.420 2045178.169 10 0 59560 2700.00000 0 23389392.562 -10018777.315 -1147095.351 10 0 59560 3600.00000 0 23043961.210 -9951145.143 -4316982.753 10 0 59560 4500.00000 0 22370618.628 -9664911.842 -7402618.553 10 0 59560 5400.00000 0 21410708.586 -9124044.336 -10343778.229 10 0 59560 6300.00000 0 20214072.025 -8302401.722 -13083071.970 10 0 59560 7200.00000 0 18836889.608 -7185104.170 -15567080.545 10 0 59560 8100.00000 0 17339276.091 -5769426.803 -17747409.560 10 0 59560 9000.00000 0 15782729.814 -4065179.538 -19581640.345 10 0 59560 9900.00000 0 14227546.581 -2094556.204 -21034158.213 10 0 59560 10800.00000 0 12730308.079 108540.905 -22076841.932 10 0 59560 11700.00000 0 11341551.245 2499672.439 -22689601.446 10 0 59560 12600.00000 0 10103716.519 5025479.696 -22860754.302 10 0 59560 13500.00000 0 9049460.429 7625680.302 -22587234.800 10 0 59560 14400.00000 0 8200401.856 10235358.023 -21874633.300 10 0 59560 15300.00000 0 7566352.589 12787450.751 -20737066.526 10 0 59560 16200.00000 0 7145061.991 15215333.103 -19196882.972 10 0 59560 17100.00000 0 6922483.854 17455386.545 -17284210.501 10 0 59560 18000.00000 0 6873551.654 19449450.922 -15036356.124 10 0 59560 18900.00000 0 6963427.235 21147056.742 -12497070.542 10 0 59560 19800.00000 0 7149168.455 22507347.019 -9715692.253 10 0 59560 20700.00000 0 7381744.181 23500610.518 -6746188.237 10 0 59560 21600.00000 0 7608310.930 24109364.690 -3646109.790 10 0 59560 22500.00000 0 7774654.897 24328945.143 -475483.475 10 0 59560 23400.00000 0 7827696.711 24167578.956 2704341.764 10 0 59560 24300.00000 0 7717953.856 23645940.308 5831869.767 10 0 59560 25200.00000 0 7401857.784 22796208.131 8846632.842 10 0 59560 26100.00000 0 6843828.888 21660665.697 11690346.231 10 0 59560 27000.00000 0 6018022.600 20289900.725 14308020.314 10 0 59560 27900.00000 0 4909673.389 18740680.690 16649010.373 10 0 59560 28800.00000 0 3515979.950 17073591.146 18667984.782 10 0 59560 29700.00000 0 1846493.539 15350534.406 20325794.154 10 0 59560 30600.00000 0 -77008.419 13632191.532 21590225.556 10 0 59560 31500.00000 0 -2221160.257 11975552.109 22436627.816 10 0 59560 32400.00000 0 -4542133.611 10431613.635 22848396.092 10 0 59560 33300.00000 0 -6987206.633 9043345.507 22817306.072 10 0 59560 34200.00000 0 -9496714.509 7844002.170 22343690.615 10 0 59560 35100.00000 0 -12006303.014 6855855.811 21436454.209 10 0 59560 36000.00000 0 -14449393.834 6089402.025 20112923.348 10 0 59560 36900.00000 0 -16759760.854 5543072.600 18398533.844 10 0 59560 37800.00000 0 -18874111.321 5203468.519 16326359.125 10 0 59560 38700.00000 0 -20734564.628 5046104.592 13936486.661 10 0 59560 39600.00000 0 -22290924.782 5036635.422 11275252.950 10 0 59560 40500.00000 0 -23502650.532 5132511.764 8394350.642 10 0 59560 41400.00000 0 -24340439.178 5284997.507 5349824.353 10 0 59560 42300.00000 0 -24787355.857 5441461.629 2200974.717 10 0 59560 43200.00000 0 -24839459.287 5547846.982 -990807.453 10 0 59560 44100.00000 0 -24505896.291 5551209.631 -4163253.048 10 0 59560 45000.00000 0 -23808460.301 5402218.903 -7254447.204 10 0 59560 45900.00000 0 -22780632.259 5057509.702 -10204056.561 10 0 59560 46800.00000 0 -21466144.844 4481784.780 -12954525.217 10 0 59560 47700.00000 0 -19917131.619 3649575.563 -15452214.033 10 0 59560 48600.00000 0 -18191940.635 2546584.952 -17648459.400 10 0 59560 49500.00000 0 -16352706.319 1170553.764 -19500529.646 10 0 59560 50400.00000 0 -14462783.559 -468386.699 -20972459.680 10 0 59560 51300.00000 0 -12584153.334 -2347891.234 -22035747.559 10 0 59560 52200.00000 0 -10774909.735 -4434099.060 -22669899.886 10 0 59560 53100.00000 0 -9086934.187 -6682824.053 -22862816.288 10 0 59560 54000.00000 0 -7563853.873 -9041186.463 -22611006.854 10 0 59560 54900.00000 0 -6239368.688 -11449617.216 -21919639.771 10 0 59560 55800.00000 0 -5136014.945 -13844150.474 -20802419.856 10 0 59560 56700.00000 0 -4264415.166 -16158908.575 -19281301.903 10 0 59560 57600.00000 0 -3623042.615 -18328675.857 -17386045.811 10 0 59560 58500.00000 0 -3198507.593 -20291454.544 -15153623.338 10 0 59560 59400.00000 0 -2966350.662 -21990897.165 -12627488.937 10 0 59560 60300.00000 0 -2892307.012 -23378515.480 -9856729.374 10 0 59560 61200.00000 0 -2933986.832 -24415575.372 -6895109.054 10 0 59560 62100.00000 0 -3042899.521 -25074600.511 -3800029.524 10 0 59560 63000.00000 0 -3166735.667 -25340423.878 -631423.092 10 0 59560 63900.00000 0 -3251810.426 -25210744.959 2549398.437 10 0 59560 64800.00000 0 -3245565.521 -24696170.816 5680918.381 10 0 59560 65700.00000 0 -3099025.010 -23819740.406 8702591.364 10 0 59560 66600.00000 0 -2769102.088 -22615952.623 11555999.328 10 0 59560 67500.00000 0 -2220660.486 -21129338.735 14185966.286 10 0 59560 68400.00000 0 -1428244.192 -19412638.362 16541611.566 10 0 59560 69300.00000 0 -377402.860 -17524654.160 18577322.393 10 0 59560 70200.00000 0 934443.234 -15527873.403 20253628.220 10 0 59560 71100.00000 0 2497636.127 -13485953.965 21537960.896 10 0 59560 72000.00000 0 4290428.095 -11461177.855 22405286.544 10 0 59560 72900.00000 0 6279640.750 -9511976.800 22838597.260 10 0 59560 73800.00000 0 8421810.639 -7690631.577 22829252.879 10 0 59560 74700.00000 0 10664776.460 -6041240.083 22377165.468 10 0 59560 75600.00000 0 12949644.798 -4598038.335 21490821.831 10 0 59560 76500.00000 0 15213055.153 -3384144.471 20187141.945 10 0 59560 77400.00000 0 17389652.044 -2410778.725 18491174.227 10 0 59560 78300.00000 0 19414662.617 -1676992.768 16435631.481 10 0 59560 79200.00000 0 21226472.929 -1169920.731 14060274.560 10 0 59560 80100.00000 0 22769095.086 -865542.341 11411153.977 10 0 59560 81000.00000 0 23994421.182 -729926.729 8539722.911 10 0 59560 81900.00000 0 24864168.146 -720904.797 5501838.010 10 0 59560 82800.00000 0 25351430.020 -790099.268 2356667.420 10 0 59560 83700.00000 0 25441770.544 -885225.697 -834472.194 10 0 59560 84600.00000 0 25133808.323 -952565.487 -4009325.867 10 0 59560 85500.00000 0 24439268.555 -939504.157 -7105932.461 10 0 59561 0.00000 0 23382498.505 -797024.857 -10063852.531 10 0 59561 900.00000 0 21999466.351 -482048.787 -12825367.446 10 0 59561 1800.00000 0 20336287.667 40478.895 -15336620.429 10 0 59561 2700.00000 0 18447340.749 795848.469 -17548680.883 10 0 59561 3600.00000 0 16393052.903 1798265.585 -19418506.018 10 0 59561 4500.00000 0 14237451.863 3050008.738 -20909781.876 10 0 59561 5400.00000 0 12045586.708 4541100.479 -21993626.995 10 0 59561 6300.00000 0 9880927.544 6249506.317 -22649145.479 10 0 59561 7200.00000 0 7802853.518 8141852.573 -22863819.527 10 0 59561 8100.00000 0 5864334.140 10174632.474 -22633735.131 10 0 59561 9000.00000 0 4109900.002 12295849.196 -21963638.042 10 0 59561 9900.00000 0 2573986.177 14447026.340 -20866820.502 10 0 59561 10800.00000 0 1279715.275 16565501.287 -19364842.543 10 0 59561 11700.00000 0 238168.305 18586905.426 -17487094.649 10 0 59561 12600.00000 0 -551829.075 20447727.807 -15270211.516 10 0 59561 13500.00000 0 -1103399.047 22087855.786 -12757349.197 10 0 59561 14400.00000 0 -1440798.614 23452987.573 -9997340.290 10 0 59561 15300.00000 0 -1598137.651 24496817.175 -7043743.921 10 0 59561 16200.00000 0 -1617683.892 25182902.025 -3953809.009 10 0 59561 17100.00000 0 -1547827.517 25486136.870 -787370.597 10 0 59561 18000.00000 0 -1440791.751 25393773.842 2394299.717 10 0 59561 18900.00000 0 -1350186.066 24905947.487 5529667.769 10 0 59561 19800.00000 0 -1328504.793 24035683.803 8558113.449 10 0 59561 20700.00000 0 -1424675.851 22808393.531 11421088.192 10 0 59561 21600.00000 0 -1681762.138 21260870.938 14063232.224 10 0 59561 22500.00000 0 -2134911.614 19439839.426 16433431.264 10 0 59561 23400.00000 0 -2809641.939 17400103.696 18485793.461 10 0 59561 24300.00000 0 -3720531.746 15202384.092 20180528.921 10 0 59561 25200.00000 0 -4870374.173 12910921.591 21484715.770 10 0 59561 26100.00000 0 -6249829.371 10590951.317 22372938.612 10 0 59561 27000.00000 0 -7837592.455 8306147.819 22827787.304 10 0 59561 27900.00000 0 -9601072.346 6116146.694 22840206.244 10 0 59561 28800.00000 0 -11497555.889 4074244.370 22409686.685 10 0 59561 29700.00000 0 -13475811.593 2225370.908 21544297.226 10 0 59561 30600.00000 0 -15478068.883 604419.789 20260550.292 10 0 59561 31500.00000 0 -17442292.611 -764995.431 18583105.327 10 0 59561 32400.00000 0 -19304659.732 -1871305.250 16544312.428 10 0 59561 33300.00000 0 -21002135.696 -2715236.382 14183603.273 10 0 59561 34200.00000 0 -22475042.972 -3309540.468 11546739.443 10 0 59561 35100.00000 0 -23669513.587 -3678210.033 8684931.387 10 0 59561 36000.00000 0 -24539721.470 -3855214.251 5653844.338 10 0 59561 36900.00000 0 -25049799.054 -3882807.863 2512510.414 10 0 59561 37800.00000 0 -25175355.425 -3809485.337 -677831.400 10 0 59561 38700.00000 0 -24904530.058 -3687668.045 -3854943.737 10 0 59561 39600.00000 0 -24238535.875 -3571224.185 -6956822.504 10 0 59561 40500.00000 0 -23191667.438 -3512928.780 -9922925.807 10 0 59561 41400.00000 0 -21790773.148 -3561973.877 -12695374.103 10 0 59561 42300.00000 0 -20074213.673 -3761636.932 -15220096.111 10 0 59561 43200.00000 0 -18090351.013 -4147208.450 -17447896.461 10 0 59561 44100.00000 0 -15895632.774 -4744268.484 -19335423.000 10 0 59561 45000.00000 0 -13552353.542 -5567386.228 -20846014.121 10 0 59561 45900.00000 0 -11126188.664 -6619298.381 -21950409.481 10 0 59561 46800.00000 0 -8683604.908 -7890601.191 -22627310.693 10 0 59561 47700.00000 0 -6289257.230 -9359968.799 -22863781.923 10 0 59561 48600.00000 0 -4003480.590 -10994888.071 -22655483.897 10 0 59561 49500.00000 0 -1879981.014 -12752878.231 -22006738.257 10 0 59561 50400.00000 0 36178.877 -14583143.169 -20930422.590 10 0 59561 51300.00000 0 1710217.802 -16428586.473 -19447699.768 10 0 59561 52200.00000 0 3118831.353 -18228104.271 -17587588.234 10 0 59561 53100.00000 0 4250898.023 -19919059.706 -15386382.836 10 0 59561 54000.00000 0 5107669.380 -21439835.776 -12886938.382 10 0 59561 54900.00000 0 5702439.452 -22732360.331 -10137830.433 10 0 59561 55800.00000 0 6059709.991 -23744498.533 -7192410.039 10 0 59561 56700.00000 0 6213889.030 -24432213.915 -4107770.759 10 0 59561 57600.00000 0 6207579.269 -24761408.977 -943647.789 10 0 59561 58500.00000 0 6089529.418 -24709369.674 2238729.914 10 0 59561 59400.00000 0 5912335.327 -24265754.598 5377812.962 10 0 59561 60300.00000 0 5729987.697 -23433088.455 8412908.586 10 0 59561 61200.00000 0 5595369.191 -22226739.765 11285339.597 10 0 59561 62100.00000 0 5557805.620 -20674383.847 13939564.113 10 0 59561 63000.00000 0 5660773.487 -18814972.998 16324235.706 10 0 59561 63900.00000 0 5939859.618 -16697255.950 18393184.672 10 0 59561 64800.00000 0 6421058.296 -14377906.785 20106302.718 10 0 59561 65700.00000 0 7119477.524 -11919339.420 21430314.929 10 0 59561 66600.00000 0 8038509.410 -9387296.539 22339424.764 10 0 59561 67500.00000 0 9169500.773 -6848311.099 22815819.926 10 0 59561 68400.00000 0 10491939.746 -4367143.867 22850029.174 10 0 59561 69300.00000 0 11974152.944 -2004301.857 22441122.465 10 0 59561 70200.00000 0 13574486.756 186260.526 21596749.471 10 0 59561 71100.00000 0 15242926.142 2159162.784 20333014.110 10 0 59561 72000.00000 0 16923085.725 3879258.078 18674185.688 10 0 59561 72900.00000 0 18554491.985 5322862.016 16652250.227 10 0 59561 73800.00000 0 20075062.440 6478498.570 14306308.651 10 0 59561 74700.00000 0 21423678.483 7347131.026 11681831.818 10 0 59561 75600.00000 0 22542743.744 7941867.525 8829785.437 10 0 59561 76500.00000 0 23380619.501 8287152.989 5805641.085 10 0 59561 77400.00000 0 23893833.007 8417481.233 2668292.410 10 0 59561 78300.00000 0 24048963.706 8375681.958 -521101.910 10 0 59561 79200.00000 0 23824125.560 8210855.977 -3700324.834 10 0 59561 80100.00000 0 23209980.823 7976047.498 -6807332.071 10 0 59561 81000.00000 0 22210240.682 7725754.099 -9781481.708 10 0 59561 81900.00000 0 20841630.343 7513382.164 -12564736.356 10 0 59561 82800.00000 0 19133319.386 7388758.056 -15102812.263 10 0 59561 83700.00000 0 17125841.367 7395802.744 -17346251.322 10 0 59561 84600.00000 0 14869548.641 7570470.321 -19251393.773 10 0 59561 85500.00000 0 12422668.354 7939039.100 -20781231.837 99